Langdon, ND

4:27 PM CDT on October 23, 2017 (GMT -0500)
Langdon

Weather History for KD55 - January, 2013

Change the Weather History Date:

Tuesday, January 1, 2013

  Actual Average (KDVL) Record (KDVL)
Temperature  
Mean Temperature 6 °F -  
Max Temperature 24 °F 13 °F 41 °F (1964)
Min Temperature -11 °F -1 °F -25 °F (1974)
Degree Days  
Heating Degree Days 58    
Moisture  
Dew Point 5 °F    
Average Humidity 92    
Maximum Humidity 100    
Minimum Humidity 77    
Precipitation  
Precipitation 0.08 in - - ()
Sea Level Pressure  
Sea Level Pressure 29.89 in    
Wind  
Wind Speed 14 mph (WSW)    
Max Wind Speed 21 mph    
Max Gust Speed 26 mph    
Visibility 7 miles    
Events Snow    
Averages and records for this station are not official NWS values.
T = Trace of Precipitation, MM = Missing Value Source: NWS Daily Summary

Daily Weather History Graph

Daily Weather History Graph

Search for Another Location

Airport or City:

Trip Planner

Search our weather history database for the weather conditions in past years. The results will help you decide how hot, cold, wet, or windy it might be!

Date:

Astronomy

Jan. 01, 2013 Rise Set
Actual Time 8:26 AM CST 4:48 PM CST
Civil Twilight 7:49 AM CST 5:25 PM CST
Nautical Twilight 7:09 AM CST 6:05 PM CST
Astronomical Twilight 6:31 AM CST 6:43 PM CST
Moon 9:45 PM CST (1/1) 10:16 AM CST (1/1)
Length of Visible Light 9h 35m
Length of Day
8h 21m
Waning Gibbous, 83% of the Moon is Illuminated
Jan 1
Waning Gibbous
Jan 4
Last Quarter
Jan 11
New
Jan 18
First Quarter
Jan 26
Full

Hourly Weather History & Observations

Time (CST) Temp. Windchill Dew Point Humidity Pressure Visibility Wind Dir Wind Speed Gust Speed Precip Events Conditions
12:15 AM -11.2 °F -32.1 °F -16.6 °F 77% 30.09 in 10.0 mi SW 12.7 mph - N/A   Partly Cloudy
12:35 AM -11.2 °F -30.1 °F -16.6 °F 77% 30.09 in 10.0 mi WSW 10.4 mph - N/A   Partly Cloudy
12:55 AM -11.2 °F -32.1 °F -16.6 °F 77% 30.08 in 10.0 mi SW 12.7 mph - N/A   Mostly Cloudy
1:15 AM -11.2 °F -31.1 °F -14.8 °F 84% 30.08 in 10.0 mi WSW 11.5 mph - N/A   Overcast
1:35 AM -9.4 °F -28.9 °F -14.8 °F 77% 30.08 in 10.0 mi WSW 11.5 mph - N/A   Overcast
1:55 AM -9.4 °F -29.8 °F -13.0 °F 84% 30.08 in 5.0 mi WSW 12.7 mph - N/A   Haze
2:15 AM -7.6 °F -26.6 °F -11.2 °F 84% 30.08 in 0.8 mi WSW 11.5 mph - N/A   Overcast
2:35 AM -4.0 °F -21.2 °F -9.4 °F 78% 30.07 in 1.0 mi WSW 10.4 mph - N/A Snow Light Snow
3:15 AM -0.4 °F -19.2 °F -4.0 °F 85% 30.05 in 1.5 mi WSW 13.8 mph - N/A   Overcast
3:35 AM -0.4 °F -18.4 °F -2.2 °F 92% 30.05 in 4.0 mi West 12.7 mph - N/A   Overcast
3:55 AM 1.4 °F -16.9 °F -0.4 °F 92% 30.04 in 5.0 mi WSW 13.8 mph - N/A   Overcast
4:15 AM 1.4 °F -16.1 °F -0.4 °F 92% 30.04 in 5.0 mi WSW 12.7 mph - N/A   Overcast
4:35 AM 5.0 °F -11.6 °F 1.4 °F 85% 30.03 in 8.0 mi WSW 12.7 mph - N/A   Overcast
4:55 AM 5.0 °F -10.8 °F 1.4 °F 85% 30.03 in 8.0 mi WSW 11.5 mph - N/A   Overcast
5:15 AM 5.0 °F -10.8 °F 3.2 °F 92% 30.02 in 8.0 mi WSW 11.5 mph - N/A   Overcast
5:35 AM 5.0 °F -13.0 °F 3.2 °F 92% 30.02 in 7.0 mi WSW 15.0 mph - N/A   Overcast
5:55 AM 6.8 °F -11.3 °F 5.0 °F 92% 30.01 in 7.0 mi WSW 16.1 mph - N/A   Overcast
6:15 AM 6.8 °F -10.0 °F 5.0 °F 92% 30.01 in 6.0 mi WSW 13.8 mph - N/A   Overcast
6:35 AM 6.8 °F -9.3 °F 5.0 °F 92% 30.00 in 6.0 mi SW 12.7 mph - N/A   Overcast
6:55 AM 6.8 °F -9.3 °F 5.0 °F 92% 30.00 in 5.0 mi SW 12.7 mph - N/A   Overcast
7:15 AM 6.8 °F -9.3 °F 5.0 °F 92% 29.99 in 6.0 mi SW 12.7 mph - N/A   Overcast
7:35 AM 5.0 °F -11.6 °F 3.2 °F 92% 29.99 in 6.0 mi SW 12.7 mph - N/A   Overcast
8:15 AM 3.2 °F -13.9 °F -0.4 °F 85% 29.97 in 5.0 mi SW 12.7 mph - N/A   Overcast
8:35 AM 1.4 °F -15.3 °F -0.4 °F 92% 29.97 in 8.0 mi SW 11.5 mph - N/A   Scattered Clouds
9:15 AM -0.4 °F -15.7 °F -4.0 °F 85% 29.96 in 8.0 mi SSW 9.2 mph - N/A   Mostly Cloudy
9:35 AM -0.4 °F -15.7 °F -4.0 °F 85% 29.96 in 8.0 mi SW 9.2 mph - N/A   Overcast
9:55 AM -0.4 °F -16.7 °F -4.0 °F 85% 29.96 in 8.0 mi SW 10.4 mph - N/A   Overcast
10:15 AM -0.4 °F -19.2 °F -2.2 °F 92% 29.95 in 9.0 mi SW 13.8 mph - N/A   Overcast
10:35 AM -0.4 °F -19.2 °F -2.2 °F 92% 29.94 in 8.0 mi SW 13.8 mph - N/A   Overcast
10:55 AM 1.4 °F -18.2 °F -0.4 °F 92% 29.93 in 8.0 mi SW 16.1 mph - N/A   Scattered Clouds
11:15 AM 1.4 °F -19.4 °F -0.4 °F 92% 29.92 in 3.0 mi SW 18.4 mph - N/A   Mostly Cloudy
11:35 AM 3.2 °F -17.1 °F -0.4 °F 85% 29.91 in 1.2 mi SW 18.4 mph - N/A   Mostly Cloudy
12:15 PM 5.0 °F -15.2 °F 1.4 °F 85% 29.89 in 2.0 mi SW 19.6 mph - N/A   Overcast
12:35 PM 5.0 °F -14.7 °F 3.2 °F 92% 29.89 in 2.5 mi SW 18.4 mph - N/A   Overcast
12:55 PM 6.8 °F -12.9 °F 5.0 °F 92% 29.87 in 5.0 mi SW 19.6 mph - N/A   Overcast
1:15 PM 6.8 °F -13.4 °F 5.0 °F 92% 29.85 in 3.0 mi SW 20.7 mph 26.5 mph N/A   Overcast
1:35 PM 8.6 °F -10.0 °F 6.8 °F 92% 29.85 in 5.0 mi SW 18.4 mph - N/A   Overcast
1:55 PM 8.6 °F -9.5 °F 6.8 °F 92% 29.84 in 7.0 mi SW 17.3 mph - N/A   Overcast
2:15 PM 8.6 °F -10.5 °F 6.8 °F 92% 29.84 in 6.0 mi SW 19.6 mph - N/A   Overcast
2:35 PM 8.6 °F -9.5 °F 6.8 °F 92% 29.83 in 9.0 mi SW 17.3 mph - N/A   Mostly Cloudy
3:15 PM 8.6 °F -10.0 °F 6.8 °F 92% 29.81 in 10.0 mi SW 18.4 mph - N/A   Clear
3:35 PM 8.6 °F -9.5 °F 6.8 °F 92% 29.81 in 10.0 mi SW 17.3 mph - N/A   Partly Cloudy
3:55 PM 8.6 °F -10.0 °F 6.8 °F 92% 29.80 in 10.0 mi SW 18.4 mph - N/A   Scattered Clouds
4:15 PM 8.6 °F -10.0 °F 6.8 °F 92% 29.81 in 8.0 mi SW 18.4 mph - N/A   Mostly Cloudy
4:35 PM 10.4 °F -7.2 °F 8.6 °F 92% 29.81 in 8.0 mi SW 17.3 mph 21.9 mph N/A   Mostly Cloudy
4:55 PM 10.4 °F -6.6 °F 8.6 °F 92% 29.80 in 6.0 mi SW 16.1 mph - N/A   Mostly Cloudy
5:15 PM 10.4 °F -6.0 °F 10.4 °F 100% 29.80 in 6.0 mi SW 15.0 mph - N/A   Mostly Cloudy
5:35 PM 12.2 °F -4.3 °F 10.4 °F 92% 29.80 in 8.0 mi WSW 16.1 mph - N/A   Mostly Cloudy
5:55 PM 14.0 °F -3.4 °F 12.2 °F 93% 29.79 in 9.0 mi WSW 19.6 mph - N/A   Mostly Cloudy
6:15 PM 14.0 °F -3.4 °F 14.0 °F 100% 29.79 in 5.0 mi WSW 19.6 mph - N/A Snow Light Snow
6:35 PM 14.0 °F -3.0 °F 14.0 °F 100% 29.78 in 3.0 mi WSW 18.4 mph - 0.02 in Snow Light Snow
6:55 PM 15.8 °F -0.6 °F 14.0 °F 93% 29.78 in 2.0 mi WSW 18.4 mph - 0.08 in Snow Light Snow
7:15 PM 15.8 °F -0.2 °F 15.8 °F 100% 29.77 in 10.0 mi WSW 17.3 mph - N/A   Partly Cloudy
7:35 PM 15.8 °F -0.6 °F 15.8 °F 100% 29.76 in 10.0 mi WSW 18.4 mph - N/A   Partly Cloudy
7:55 PM 17.6 °F 2.7 °F 15.8 °F 93% 29.76 in 10.0 mi WSW 16.1 mph - N/A   Mostly Cloudy
8:15 PM 17.6 °F 2.2 °F 17.6 °F 100% 29.76 in 9.0 mi WSW 17.3 mph - N/A Snow Light Snow
8:35 PM 17.6 °F 2.2 °F 17.6 °F 100% 29.75 in 4.0 mi WSW 17.3 mph - N/A Snow Light Snow
8:55 PM 17.6 °F 2.7 °F 17.6 °F 100% 29.74 in 3.0 mi WSW 16.1 mph - N/A Snow Light Snow
9:15 PM 19.4 °F 5.5 °F 19.4 °F 100% 29.74 in 3.0 mi WSW 15.0 mph - N/A Snow Light Snow
9:35 PM 19.4 °F 4.5 °F 19.4 °F 100% 29.74 in 10.0 mi West 17.3 mph - N/A   Mostly Cloudy
9:55 PM 21.2 °F 6.4 °F 21.2 °F 100% 29.73 in 10.0 mi West 18.4 mph - N/A   Overcast
10:15 PM 21.2 °F 6.0 °F 21.2 °F 100% 29.72 in 10.0 mi West 19.6 mph - N/A   Overcast
10:35 PM 23.0 °F 9.2 °F 23.0 °F 100% 29.73 in 10.0 mi West 17.3 mph - N/A   Overcast
10:55 PM 23.0 °F 9.2 °F 23.0 °F 100% 29.72 in 10.0 mi West 17.3 mph - N/A   Overcast
11:15 PM 23.0 °F 8.7 °F 23.0 °F 100% 29.72 in 10.0 mi West 18.4 mph - N/A   Overcast
11:35 PM 24.8 °F 12.9 °F 24.8 °F 100% 29.72 in 10.0 mi West 13.8 mph - N/A   Overcast
11:55 PM 24.8 °F 12.4 °F 24.8 °F 100% 29.72 in 10.0 mi West 15.0 mph - N/A   Overcast